Year,Month,Day,Hour,Minute,Value (Times are PST for windspeed in km/hr)
2019,04,05,00,00,0.00
2019,04,05,00,01,0.00
2019,04,05,00,02,0.00
2019,04,05,00,03,0.00
2019,04,05,00,04,0.00
2019,04,05,00,05,0.00
2019,04,05,00,06,0.00
2019,04,05,00,07,0.00
2019,04,05,00,08,0.00
2019,04,05,00,09,0.00
2019,04,05,00,10,0.00
2019,04,05,00,11,0.00
2019,04,05,00,12,0.00
2019,04,05,00,13,0.00
2019,04,05,00,14,0.10
2019,04,05,00,15,1.80
2019,04,05,00,16,0.50
2019,04,05,00,17,0.00
2019,04,05,00,18,0.00
2019,04,05,00,19,0.00
2019,04,05,00,20,0.00
2019,04,05,00,21,0.50
2019,04,05,00,22,1.20
2019,04,05,00,23,0.60
2019,04,05,00,24,1.20
2019,04,05,00,25,0.80
2019,04,05,00,26,0.00
2019,04,05,00,27,0.00
2019,04,05,00,28,1.70
2019,04,05,00,29,0.60
2019,04,05,00,30,0.60
2019,04,05,00,31,1.00
2019,04,05,00,32,0.80
2019,04,05,00,33,0.00
2019,04,05,00,34,0.00
2019,04,05,00,35,0.00
2019,04,05,00,36,0.00
2019,04,05,00,37,0.00
2019,04,05,00,38,0.00
2019,04,05,00,39,0.00
2019,04,05,00,40,0.00
2019,04,05,00,41,0.00
2019,04,05,00,42,0.00
2019,04,05,00,43,0.00
2019,04,05,00,44,0.00
2019,04,05,00,45,0.00
2019,04,05,00,46,0.00
2019,04,05,00,47,0.00
2019,04,05,00,48,0.50
2019,04,05,00,49,1.40
2019,04,05,00,50,1.60
2019,04,05,00,51,1.10
2019,04,05,00,52,1.00
2019,04,05,00,53,1.20
2019,04,05,00,54,0.20
2019,04,05,00,55,0.60
2019,04,05,00,56,1.30
2019,04,05,00,57,1.70
2019,04,05,00,58,2.70
2019,04,05,00,59,1.30
2019,04,05,01,00,1.20
2019,04,05,01,01,0.10
2019,04,05,01,02,0.00
2019,04,05,01,03,0.00
2019,04,05,01,04,0.00
2019,04,05,01,05,0.00
2019,04,05,01,06,0.00
2019,04,05,01,07,0.00
2019,04,05,01,08,0.00
2019,04,05,01,09,0.00
2019,04,05,01,10,0.00
2019,04,05,01,11,0.00
2019,04,05,01,12,0.00
2019,04,05,01,13,0.00
2019,04,05,01,14,0.00
2019,04,05,01,15,0.00
2019,04,05,01,16,0.00
2019,04,05,01,17,0.00
2019,04,05,01,18,0.00
2019,04,05,01,19,0.00
2019,04,05,01,20,0.00
2019,04,05,01,21,0.00
2019,04,05,01,22,0.00
2019,04,05,01,23,0.00
2019,04,05,01,24,0.00
2019,04,05,01,25,0.00
2019,04,05,01,26,0.00
2019,04,05,01,27,0.00
2019,04,05,01,28,0.00
2019,04,05,01,29,0.00
2019,04,05,01,30,0.00
2019,04,05,01,31,0.00
2019,04,05,01,32,0.00
2019,04,05,01,33,0.00
2019,04,05,01,34,0.00
2019,04,05,01,35,0.00
2019,04,05,01,36,0.00
2019,04,05,01,37,0.00
2019,04,05,01,38,0.00
2019,04,05,01,39,0.00
2019,04,05,01,40,0.00
2019,04,05,01,41,0.00
2019,04,05,01,42,0.00
2019,04,05,01,43,0.00
2019,04,05,01,44,0.00
2019,04,05,01,45,0.00
2019,04,05,01,46,0.00
2019,04,05,01,47,0.00
2019,04,05,01,48,0.00
2019,04,05,01,49,0.00
2019,04,05,01,50,0.00
2019,04,05,01,51,0.00
2019,04,05,01,52,0.00
2019,04,05,01,53,0.00
2019,04,05,01,54,0.00
2019,04,05,01,55,0.00
2019,04,05,01,56,0.00
2019,04,05,01,57,0.00
2019,04,05,01,58,0.00
2019,04,05,01,59,0.00
2019,04,05,02,00,0.00
2019,04,05,02,01,0.00
2019,04,05,02,02,0.00
2019,04,05,02,03,0.00
2019,04,05,02,04,0.00
2019,04,05,02,05,0.00
2019,04,05,02,06,0.00
2019,04,05,02,07,0.00
2019,04,05,02,08,0.00
2019,04,05,02,09,0.00
2019,04,05,02,10,0.00
2019,04,05,02,11,0.00
2019,04,05,02,12,0.00
2019,04,05,02,13,0.00
2019,04,05,02,14,0.00
2019,04,05,02,15,0.00
2019,04,05,02,16,0.00
2019,04,05,02,17,0.00
2019,04,05,02,18,0.00
2019,04,05,02,19,0.00
2019,04,05,02,20,0.00
2019,04,05,02,21,0.00
2019,04,05,02,22,0.00
2019,04,05,02,23,0.00
2019,04,05,02,24,0.00
2019,04,05,02,25,0.00
2019,04,05,02,26,0.00
2019,04,05,02,27,0.00
2019,04,05,02,28,0.00
2019,04,05,02,29,0.00
2019,04,05,02,30,0.00
2019,04,05,02,31,0.00
2019,04,05,02,32,0.00
2019,04,05,02,33,0.00
2019,04,05,02,34,0.10
2019,04,05,02,35,0.00
2019,04,05,02,36,0.00
2019,04,05,02,37,0.00
2019,04,05,02,38,0.00
2019,04,05,02,39,0.00
2019,04,05,02,40,0.00
2019,04,05,02,41,0.00
2019,04,05,02,42,0.00
2019,04,05,02,43,0.00
2019,04,05,02,44,0.00
2019,04,05,02,45,0.00
2019,04,05,02,46,0.00
2019,04,05,02,47,0.00
2019,04,05,02,48,0.00
2019,04,05,02,49,0.00
2019,04,05,02,50,0.00
2019,04,05,02,51,0.00
2019,04,05,02,52,0.00
2019,04,05,02,53,0.00
2019,04,05,02,54,0.00
2019,04,05,02,55,0.00
2019,04,05,02,56,0.00
2019,04,05,02,57,0.00
2019,04,05,02,58,0.00
2019,04,05,02,59,0.00
2019,04,05,03,00,0.00
2019,04,05,03,01,0.00
2019,04,05,03,02,0.00
2019,04,05,03,03,0.00
2019,04,05,03,04,0.00
2019,04,05,03,05,0.00
2019,04,05,03,06,0.00
2019,04,05,03,07,0.00
2019,04,05,03,08,0.00
2019,04,05,03,09,0.00
2019,04,05,03,10,0.00
2019,04,05,03,11,0.00
2019,04,05,03,12,0.00
2019,04,05,03,13,0.00
2019,04,05,03,14,0.00
2019,04,05,03,15,0.00
2019,04,05,03,16,0.00
2019,04,05,03,17,0.00
2019,04,05,03,18,0.00
2019,04,05,03,19,3.20
2019,04,05,03,20,4.10
2019,04,05,03,21,3.00
2019,04,05,03,22,3.60
2019,04,05,03,23,2.70
2019,04,05,03,24,2.40
2019,04,05,03,25,3.70
2019,04,05,03,26,4.60
2019,04,05,03,27,1.90
2019,04,05,03,28,1.70
2019,04,05,03,29,3.00
2019,04,05,03,30,3.60
2019,04,05,03,31,2.30
2019,04,05,03,32,1.80
2019,04,05,03,33,3.00
2019,04,05,03,34,1.60
2019,04,05,03,35,3.00
2019,04,05,03,36,1.00
2019,04,05,03,37,1.00
2019,04,05,03,38,2.40
2019,04,05,03,39,1.40
2019,04,05,03,40,1.20
2019,04,05,03,41,1.30
2019,04,05,03,42,0.30
2019,04,05,03,43,2.90
2019,04,05,03,44,1.90
2019,04,05,03,45,2.00
2019,04,05,03,46,3.10
2019,04,05,03,47,4.20
2019,04,05,03,48,4.10
2019,04,05,03,49,1.90
2019,04,05,03,50,1.40
2019,04,05,03,51,2.70
2019,04,05,03,52,2.90
2019,04,05,03,53,1.20
2019,04,05,03,54,1.70
2019,04,05,03,55,1.60
2019,04,05,03,56,1.20
2019,04,05,03,57,2.50
2019,04,05,03,58,3.70
2019,04,05,03,59,3.20
2019,04,05,04,00,5.80
2019,04,05,04,01,5.00
2019,04,05,04,02,4.70
2019,04,05,04,03,4.20
2019,04,05,04,04,3.00
2019,04,05,04,05,2.70
2019,04,05,04,06,3.30
2019,04,05,04,07,6.40
2019,04,05,04,08,6.30
2019,04,05,04,09,6.30
2019,04,05,04,10,4.50
2019,04,05,04,11,3.90
2019,04,05,04,12,5.20
2019,04,05,04,13,4.50
2019,04,05,04,14,6.90
2019,04,05,04,15,5.70
2019,04,05,04,16,4.60
2019,04,05,04,17,8.70
2019,04,05,04,18,7.50
2019,04,05,04,19,7.60
2019,04,05,04,20,5.70
2019,04,05,04,21,6.10
2019,04,05,04,22,8.20
2019,04,05,04,23,8.50
2019,04,05,04,24,9.40
2019,04,05,04,25,6.30
2019,04,05,04,26,4.90
2019,04,05,04,27,7.90
2019,04,05,04,28,7.20
2019,04,05,04,29,6.20
2019,04,05,04,30,2.90
2019,04,05,04,31,4.70
2019,04,05,04,32,9.20
2019,04,05,04,33,7.80
2019,04,05,04,34,8.20
2019,04,05,04,35,3.40
2019,04,05,04,36,9.40
2019,04,05,04,37,10.00
2019,04,05,04,38,10.40
2019,04,05,04,39,9.80
2019,04,05,04,40,6.20
2019,04,05,04,41,7.10
2019,04,05,04,42,8.10
2019,04,05,04,43,7.70
2019,04,05,04,44,13.10
2019,04,05,04,45,8.10
2019,04,05,04,46,12.80
2019,04,05,04,47,9.50
2019,04,05,04,48,7.90
2019,04,05,04,49,10.70
2019,04,05,04,50,9.90
2019,04,05,04,51,9.70
2019,04,05,04,52,5.70
2019,04,05,04,53,8.80
2019,04,05,04,54,13.90
2019,04,05,04,55,8.40
2019,04,05,04,56,8.50
2019,04,05,04,57,8.40
2019,04,05,04,58,7.20
2019,04,05,04,59,10.30
2019,04,05,05,00,15.40
2019,04,05,05,01,17.70
2019,04,05,05,02,15.50
2019,04,05,05,03,9.80
2019,04,05,05,04,20.30
2019,04,05,05,05,12.00
2019,04,05,05,06,12.00
2019,04,05,05,07,8.50
2019,04,05,05,08,13.60
2019,04,05,05,09,16.60
2019,04,05,05,10,15.50
2019,04,05,05,11,14.90
2019,04,05,05,12,14.60
2019,04,05,05,13,11.30
2019,04,05,05,14,11.40
2019,04,05,05,15,12.20
2019,04,05,05,16,11.30
2019,04,05,05,17,7.60
2019,04,05,05,18,18.70
2019,04,05,05,19,7.90
2019,04,05,05,20,17.00
2019,04,05,05,21,14.50
2019,04,05,05,22,12.70
2019,04,05,05,23,9.30
2019,04,05,05,24,13.70
2019,04,05,05,25,12.00
2019,04,05,05,26,12.90
2019,04,05,05,27,12.70
2019,04,05,05,28,10.60
2019,04,05,05,29,9.10
2019,04,05,05,30,17.30
2019,04,05,05,31,15.70
2019,04,05,05,32,15.10
2019,04,05,05,33,16.00
2019,04,05,05,34,11.70
2019,04,05,05,35,12.80
2019,04,05,05,36,16.20
2019,04,05,05,37,14.60
2019,04,05,05,38,11.70
2019,04,05,05,39,13.40
2019,04,05,05,40,18.40
2019,04,05,05,41,12.30
2019,04,05,05,42,16.30
2019,04,05,05,43,10.30
2019,04,05,05,44,13.00
2019,04,05,05,45,12.10
2019,04,05,05,46,12.50
2019,04,05,05,47,9.30
2019,04,05,05,48,18.80
2019,04,05,05,49,20.60
2019,04,05,05,50,14.80
2019,04,05,05,51,14.20
2019,04,05,05,52,15.80
2019,04,05,05,53,10.30
2019,04,05,05,54,10.60
2019,04,05,05,55,16.50
2019,04,05,05,56,19.10
2019,04,05,05,57,15.00
2019,04,05,05,58,16.30
2019,04,05,05,59,12.30
2019,04,05,06,00,12.30
2019,04,05,06,01,13.70
2019,04,05,06,02,7.80
2019,04,05,06,03,12.80
2019,04,05,06,04,19.30
2019,04,05,06,05,16.70
2019,04,05,06,06,11.20
2019,04,05,06,07,11.60
2019,04,05,06,08,9.80
2019,04,05,06,09,10.10
2019,04,05,06,10,14.40
2019,04,05,06,11,10.40
2019,04,05,06,12,13.50
2019,04,05,06,13,13.20
2019,04,05,06,14,16.00
2019,04,05,06,15,18.00
2019,04,05,06,16,12.00
2019,04,05,06,17,10.60
2019,04,05,06,18,11.50
2019,04,05,06,19,11.30
2019,04,05,06,20,15.40
2019,04,05,06,21,11.70
2019,04,05,06,22,19.80
2019,04,05,06,23,13.70
2019,04,05,06,24,10.40
2019,04,05,06,25,8.80
2019,04,05,06,26,16.90
2019,04,05,06,27,12.10
2019,04,05,06,28,13.90
2019,04,05,06,29,19.60
2019,04,05,06,30,16.60
2019,04,05,06,31,15.60
2019,04,05,06,32,15.50
2019,04,05,06,33,13.20
2019,04,05,06,34,16.70
2019,04,05,06,35,16.50
2019,04,05,06,36,13.90
2019,04,05,06,37,15.60
2019,04,05,06,38,14.70
2019,04,05,06,39,9.30
2019,04,05,06,40,12.50
2019,04,05,06,41,13.40
2019,04,05,06,42,13.00
2019,04,05,06,43,11.90
2019,04,05,06,44,17.80
2019,04,05,06,45,10.80
2019,04,05,06,46,11.60
2019,04,05,06,47,10.80
2019,04,05,06,48,9.10
2019,04,05,06,49,10.50
2019,04,05,06,50,16.90
2019,04,05,06,51,12.20
2019,04,05,06,52,11.00
2019,04,05,06,53,13.80
2019,04,05,06,54,12.00
2019,04,05,06,55,10.60
2019,04,05,06,56,11.20
2019,04,05,06,57,14.70
2019,04,05,06,58,15.50
2019,04,05,06,59,15.80
2019,04,05,07,00,14.00
2019,04,05,07,01,16.60
2019,04,05,07,02,15.90
2019,04,05,07,03,15.80
2019,04,05,07,04,17.90
2019,04,05,07,05,17.90
2019,04,05,07,06,14.10
2019,04,05,07,07,15.20
2019,04,05,07,08,17.60
2019,04,05,07,09,15.10
2019,04,05,07,10,10.20
2019,04,05,07,11,12.30
2019,04,05,07,12,13.20
2019,04,05,07,13,9.30
2019,04,05,07,14,9.70
2019,04,05,07,15,9.90
2019,04,05,07,16,9.70
2019,04,05,07,17,9.30
2019,04,05,07,18,13.30
2019,04,05,07,19,9.10
2019,04,05,07,20,12.50
2019,04,05,07,21,14.40
2019,04,05,07,22,9.60
2019,04,05,07,23,14.50
2019,04,05,07,24,13.70
2019,04,05,07,25,11.90
2019,04,05,07,26,8.10
2019,04,05,07,27,7.00
2019,04,05,07,28,9.10
2019,04,05,07,29,8.20
2019,04,05,07,30,8.90
2019,04,05,07,31,12.70
2019,04,05,07,32,9.50
2019,04,05,07,33,7.50
2019,04,05,07,34,8.70
2019,04,05,07,35,9.90
2019,04,05,07,36,7.50
2019,04,05,07,37,7.60
2019,04,05,07,38,11.80
2019,04,05,07,39,7.00
2019,04,05,07,40,8.40
2019,04,05,07,41,7.40
2019,04,05,07,42,2.90
2019,04,05,07,43,2.90
2019,04,05,07,44,4.50
2019,04,05,07,45,5.40
2019,04,05,07,46,7.50
2019,04,05,07,47,5.60
2019,04,05,07,48,6.40
2019,04,05,07,49,5.70
2019,04,05,07,50,4.80
2019,04,05,07,51,7.30
2019,04,05,07,52,10.00
2019,04,05,07,53,9.60
2019,04,05,07,54,6.80
2019,04,05,07,55,10.40
2019,04,05,07,56,6.90
2019,04,05,07,57,9.70
2019,04,05,07,58,13.40
2019,04,05,07,59,15.70
2019,04,05,08,00,18.60
2019,04,05,08,01,14.80
2019,04,05,08,02,16.10
2019,04,05,08,03,16.90
2019,04,05,08,04,10.10
2019,04,05,08,05,19.10
2019,04,05,08,06,16.30
2019,04,05,08,07,11.40
2019,04,05,08,08,16.80
2019,04,05,08,09,13.70
2019,04,05,08,10,9.40
2019,04,05,08,11,13.40
2019,04,05,08,12,22.40
2019,04,05,08,13,23.50
2019,04,05,08,14,19.60
2019,04,05,08,15,14.90
2019,04,05,08,16,19.60
2019,04,05,08,17,13.40
2019,04,05,08,18,7.90
2019,04,05,08,19,11.60
2019,04,05,08,20,11.30
2019,04,05,08,21,9.90
2019,04,05,08,22,12.10
2019,04,05,08,23,8.20
2019,04,05,08,24,8.90
2019,04,05,08,25,16.00
2019,04,05,08,26,17.20
2019,04,05,08,27,17.50
2019,04,05,08,28,19.00
2019,04,05,08,29,17.90
2019,04,05,08,30,12.80
2019,04,05,08,31,20.70
2019,04,05,08,32,19.80
2019,04,05,08,33,17.00
2019,04,05,08,34,12.80
2019,04,05,08,35,20.00
2019,04,05,08,36,18.10
2019,04,05,08,37,22.40
2019,04,05,08,38,18.90
2019,04,05,08,39,18.70
2019,04,05,08,40,18.50
2019,04,05,08,41,9.80
2019,04,05,08,42,13.10
2019,04,05,08,43,16.50
2019,04,05,08,44,20.10
2019,04,05,08,45,15.10
2019,04,05,08,46,17.70
2019,04,05,08,47,14.40
2019,04,05,08,48,11.30
2019,04,05,08,49,9.70
2019,04,05,08,50,16.30
2019,04,05,08,51,16.50
2019,04,05,08,52,14.00
2019,04,05,08,53,11.30
2019,04,05,08,54,15.30
2019,04,05,08,55,16.10
2019,04,05,08,56,15.60
2019,04,05,08,57,11.40
2019,04,05,08,58,15.70
2019,04,05,08,59,15.60
2019,04,05,09,00,21.50
2019,04,05,09,01,15.90
2019,04,05,09,02,16.90
2019,04,05,09,03,12.80
2019,04,05,09,04,11.90
2019,04,05,09,05,7.80
2019,04,05,09,06,14.10
2019,04,05,09,07,10.30
2019,04,05,09,08,13.80
2019,04,05,09,09,12.90
2019,04,05,09,10,12.70
2019,04,05,09,11,14.00
2019,04,05,09,12,15.10
2019,04,05,09,13,9.60
2019,04,05,09,14,15.00
2019,04,05,09,15,10.80
2019,04,05,09,16,10.70
2019,04,05,09,17,15.60
2019,04,05,09,18,14.70
2019,04,05,09,19,11.30
2019,04,05,09,20,16.80
2019,04,05,09,21,12.10
2019,04,05,09,22,16.70
2019,04,05,09,23,18.10
2019,04,05,09,24,10.20
2019,04,05,09,25,14.70
2019,04,05,09,26,13.40
2019,04,05,09,27,16.80
2019,04,05,09,28,12.90
2019,04,05,09,29,14.10
2019,04,05,09,30,13.80
2019,04,05,09,31,14.20
2019,04,05,09,32,16.10
2019,04,05,09,33,18.00
2019,04,05,09,34,13.80
2019,04,05,09,35,12.30
2019,04,05,09,36,15.80
2019,04,05,09,37,18.40
2019,04,05,09,38,11.70
2019,04,05,09,39,9.40
2019,04,05,09,40,10.50
2019,04,05,09,41,7.60
2019,04,05,09,42,11.00
2019,04,05,09,43,11.30
2019,04,05,09,44,17.30
2019,04,05,09,45,14.60
2019,04,05,09,46,15.40
2019,04,05,09,47,8.50
2019,04,05,09,48,9.90
2019,04,05,09,49,17.10
2019,04,05,09,50,16.10
2019,04,05,09,51,10.20
2019,04,05,09,52,11.00
2019,04,05,09,53,12.30
2019,04,05,09,54,9.10
2019,04,05,09,55,13.60
2019,04,05,09,56,17.00
2019,04,05,09,57,15.10
2019,04,05,09,58,16.90
2019,04,05,09,59,12.80
2019,04,05,10,00,13.90
2019,04,05,10,01,13.50
2019,04,05,10,02,14.70
2019,04,05,10,03,15.10
2019,04,05,10,04,16.90
2019,04,05,10,05,13.70
2019,04,05,10,06,13.50
2019,04,05,10,07,16.20
2019,04,05,10,08,17.60
2019,04,05,10,09,15.40
2019,04,05,10,10,11.60
2019,04,05,10,11,19.90
2019,04,05,10,12,18.90
2019,04,05,10,13,14.40
2019,04,05,10,14,9.90
2019,04,05,10,15,17.50
2019,04,05,10,16,15.80
2019,04,05,10,17,14.70
2019,04,05,10,18,17.40
2019,04,05,10,19,14.50
2019,04,05,10,20,13.20
2019,04,05,10,21,19.70
2019,04,05,10,22,19.50
2019,04,05,10,23,21.80
2019,04,05,10,24,23.20
2019,04,05,10,25,19.30
2019,04,05,10,26,14.20
2019,04,05,10,27,18.00
2019,04,05,10,28,19.40
2019,04,05,10,29,21.00
2019,04,05,10,30,19.90
2019,04,05,10,31,19.20
2019,04,05,10,32,21.50
2019,04,05,10,33,14.70
2019,04,05,10,34,22.00
2019,04,05,10,35,20.70
2019,04,05,10,36,19.60
2019,04,05,10,37,17.50
2019,04,05,10,38,26.30
2019,04,05,10,39,26.50
2019,04,05,10,40,26.60
2019,04,05,10,41,21.20
2019,04,05,10,42,14.50
2019,04,05,10,43,20.50
2019,04,05,10,44,22.30
2019,04,05,10,45,13.60
2019,04,05,10,46,14.50
2019,04,05,10,47,21.00
2019,04,05,10,48,20.60
2019,04,05,10,49,14.70
2019,04,05,10,50,22.40
2019,04,05,10,51,18.10
2019,04,05,10,52,15.90
2019,04,05,10,53,13.20
2019,04,05,10,54,20.10
2019,04,05,10,55,19.40
2019,04,05,10,56,20.10
2019,04,05,10,57,19.80
2019,04,05,10,58,21.60
2019,04,05,10,59,20.00
2019,04,05,11,00,19.70
2019,04,05,11,01,17.40
2019,04,05,11,02,23.20
2019,04,05,11,03,18.00
2019,04,05,11,04,13.20
2019,04,05,11,05,15.30
2019,04,05,11,06,18.50
2019,04,05,11,07,23.40
2019,04,05,11,08,12.60
2019,04,05,11,09,16.00
2019,04,05,11,10,17.10
2019,04,05,11,11,15.50
2019,04,05,11,12,12.00
2019,04,05,11,13,12.80
2019,04,05,11,14,16.20
2019,04,05,11,15,14.10
2019,04,05,11,16,19.50
2019,04,05,11,17,13.00
2019,04,05,11,18,11.80
2019,04,05,11,19,10.70
2019,04,05,11,20,6.70
2019,04,05,11,21,13.10
2019,04,05,11,22,8.80
2019,04,05,11,23,16.20
2019,04,05,11,24,16.10
2019,04,05,11,25,19.10
2019,04,05,11,26,17.90
2019,04,05,11,27,22.20
2019,04,05,11,28,19.00
2019,04,05,11,29,20.00
2019,04,05,11,30,17.50
2019,04,05,11,31,13.90
2019,04,05,11,32,13.20
2019,04,05,11,33,22.40
2019,04,05,11,34,24.60
2019,04,05,11,35,14.00
2019,04,05,11,36,18.90
2019,04,05,11,37,22.10
2019,04,05,11,38,17.90
2019,04,05,11,39,23.80
2019,04,05,11,40,22.10
2019,04,05,11,41,15.10
2019,04,05,11,42,19.50
2019,04,05,11,43,17.60
2019,04,05,11,44,19.50
2019,04,05,11,45,9.90
2019,04,05,11,46,11.70
2019,04,05,11,47,17.20
2019,04,05,11,48,16.40
2019,04,05,11,49,15.60
2019,04,05,11,50,13.10
2019,04,05,11,51,12.00
2019,04,05,11,52,13.10
2019,04,05,11,53,11.80
2019,04,05,11,54,18.40
2019,04,05,11,55,15.00
2019,04,05,11,56,12.60
2019,04,05,11,57,15.30
2019,04,05,11,58,16.00
2019,04,05,11,59,19.30
2019,04,05,12,00,12.30
2019,04,05,12,01,12.50
2019,04,05,12,02,20.00
2019,04,05,12,03,12.50
2019,04,05,12,04,12.00
2019,04,05,12,05,13.50
2019,04,05,12,06,12.80
2019,04,05,12,07,13.20
2019,04,05,12,08,15.30
2019,04,05,12,09,16.90
2019,04,05,12,10,15.40
2019,04,05,12,11,17.60
2019,04,05,12,12,18.10
2019,04,05,12,13,16.20
2019,04,05,12,14,16.90
2019,04,05,12,15,19.20
2019,04,05,12,16,15.60
2019,04,05,12,17,23.80
2019,04,05,12,18,15.40
2019,04,05,12,19,17.60
2019,04,05,12,20,19.80
2019,04,05,12,21,13.90
2019,04,05,12,22,18.10
2019,04,05,12,23,16.20
2019,04,05,12,24,12.70
2019,04,05,12,25,12.10
2019,04,05,12,26,12.90
2019,04,05,12,27,23.80
2019,04,05,12,28,18.60
2019,04,05,12,29,23.10
2019,04,05,12,30,19.90
2019,04,05,12,31,12.50
2019,04,05,12,32,15.60
2019,04,05,12,33,13.20
2019,04,05,12,34,19.80
2019,04,05,12,35,23.10
2019,04,05,12,36,15.30
2019,04,05,12,37,19.60
2019,04,05,12,38,17.80
2019,04,05,12,39,19.60
2019,04,05,12,40,21.50
2019,04,05,12,41,22.50
2019,04,05,12,42,21.60
2019,04,05,12,43,22.20
2019,04,05,12,44,15.90
2019,04,05,12,45,13.40
2019,04,05,12,46,16.20
2019,04,05,12,47,26.00
2019,04,05,12,48,21.20
2019,04,05,12,49,15.60
2019,04,05,12,50,16.20
2019,04,05,12,51,16.70
2019,04,05,12,52,14.40
2019,04,05,12,53,19.80
2019,04,05,12,54,19.00
2019,04,05,12,55,24.20
2019,04,05,12,56,18.90
2019,04,05,12,57,18.70
2019,04,05,12,58,25.10
2019,04,05,12,59,20.00
2019,04,05,13,00,15.70
2019,04,05,13,01,12.60
2019,04,05,13,02,10.00
2019,04,05,13,03,12.50
2019,04,05,13,04,16.40
2019,04,05,13,05,23.70
2019,04,05,13,06,20.50
2019,04,05,13,07,16.60
2019,04,05,13,08,23.30
2019,04,05,13,09,25.60
2019,04,05,13,10,14.20
2019,04,05,13,11,13.80
2019,04,05,13,12,9.80
2019,04,05,13,13,16.70
2019,04,05,13,14,16.20
2019,04,05,13,15,15.30
2019,04,05,13,16,19.80
2019,04,05,13,17,16.80
2019,04,05,13,18,21.20
2019,04,05,13,19,15.40
2019,04,05,13,20,14.20
2019,04,05,13,21,21.70
2019,04,05,13,22,19.10
2019,04,05,13,23,19.10
2019,04,05,13,24,18.30
2019,04,05,13,25,17.10
2019,04,05,13,26,16.60
2019,04,05,13,27,19.10
2019,04,05,13,28,15.60
2019,04,05,13,29,15.40
2019,04,05,13,30,19.40
2019,04,05,13,31,14.70
2019,04,05,13,32,12.40
2019,04,05,13,33,16.30
2019,04,05,13,34,16.90
2019,04,05,13,35,15.30
2019,04,05,13,36,14.20
2019,04,05,13,37,14.60
2019,04,05,13,38,13.70
2019,04,05,13,39,15.70
2019,04,05,13,40,8.90
2019,04,05,13,41,13.60
2019,04,05,13,42,18.00
2019,04,05,13,43,18.30
2019,04,05,13,44,15.40
2019,04,05,13,45,15.50
2019,04,05,13,46,24.10
2019,04,05,13,47,16.70
2019,04,05,13,48,22.60
2019,04,05,13,49,17.30
2019,04,05,13,50,20.40
2019,04,05,13,51,23.40
2019,04,05,13,52,18.90
2019,04,05,13,53,17.00
2019,04,05,13,54,14.50
2019,04,05,13,55,15.70
2019,04,05,13,56,16.70
2019,04,05,13,57,21.20
2019,04,05,13,58,19.80
2019,04,05,13,59,14.30
2019,04,05,14,00,16.60
2019,04,05,14,01,15.70
2019,04,05,14,02,17.60
2019,04,05,14,03,20.00
2019,04,05,14,04,14.30
2019,04,05,14,05,20.10
2019,04,05,14,06,25.00
2019,04,05,14,07,18.30
2019,04,05,14,08,14.50
2019,04,05,14,09,21.80
2019,04,05,14,10,14.20
2019,04,05,14,11,20.70
2019,04,05,14,12,11.00
2019,04,05,14,13,22.00
2019,04,05,14,14,19.10
2019,04,05,14,15,19.10
2019,04,05,14,16,16.70
2019,04,05,14,17,20.70
2019,04,05,14,18,18.40
2019,04,05,14,19,20.60
2019,04,05,14,20,23.80
2019,04,05,14,21,17.90
2019,04,05,14,22,22.10
2019,04,05,14,23,25.80
2019,04,05,14,24,17.90
2019,04,05,14,25,19.10
2019,04,05,14,26,20.90
2019,04,05,14,27,17.90
2019,04,05,14,28,20.60
2019,04,05,14,29,21.20
2019,04,05,14,30,14.10
2019,04,05,14,31,14.20
2019,04,05,14,32,15.90
2019,04,05,14,33,14.20
2019,04,05,14,34,18.10
2019,04,05,14,35,14.80
2019,04,05,14,36,11.50
2019,04,05,14,37,14.80
2019,04,05,14,38,15.10
2019,04,05,14,39,13.80
2019,04,05,14,40,9.80
2019,04,05,14,41,16.10
2019,04,05,14,42,14.30
2019,04,05,14,43,15.80
2019,04,05,14,44,16.40
2019,04,05,14,45,18.10
2019,04,05,14,46,13.90
2019,04,05,14,47,7.50
2019,04,05,14,48,13.50
2019,04,05,14,49,17.30
2019,04,05,14,50,16.90
2019,04,05,14,51,13.10
2019,04,05,14,52,9.70
2019,04,05,14,53,6.00
2019,04,05,14,54,6.90
2019,04,05,14,55,5.00
2019,04,05,14,56,7.10
2019,04,05,14,57,12.70
2019,04,05,14,58,14.00
2019,04,05,14,59,12.60
2019,04,05,15,00,15.90
2019,04,05,15,01,11.80
2019,04,05,15,02,13.50
2019,04,05,15,03,9.40
2019,04,05,15,04,10.50
2019,04,05,15,05,11.90
2019,04,05,15,06,11.60
2019,04,05,15,07,13.10
2019,04,05,15,08,12.20
2019,04,05,15,09,10.10
2019,04,05,15,10,10.90
2019,04,05,15,11,14.70
2019,04,05,15,12,13.90
2019,04,05,15,13,11.30
2019,04,05,15,14,13.50
2019,04,05,15,15,8.90
2019,04,05,15,16,8.10
2019,04,05,15,17,12.80
2019,04,05,15,18,13.90
2019,04,05,15,19,6.50
2019,04,05,15,20,10.10
2019,04,05,15,21,7.90
2019,04,05,15,22,9.40
2019,04,05,15,23,8.40
2019,04,05,15,24,7.60
2019,04,05,15,25,8.70
2019,04,05,15,26,12.90
2019,04,05,15,27,14.20
2019,04,05,15,28,12.80
2019,04,05,15,29,11.10
2019,04,05,15,30,7.30
2019,04,05,15,31,8.30
2019,04,05,15,32,11.80
2019,04,05,15,33,12.00
2019,04,05,15,34,11.80
2019,04,05,15,35,8.20
2019,04,05,15,36,8.90
2019,04,05,15,37,6.70
2019,04,05,15,38,8.80
2019,04,05,15,39,10.90
2019,04,05,15,40,10.80
2019,04,05,15,41,8.10
2019,04,05,15,42,6.40
2019,04,05,15,43,5.80
2019,04,05,15,44,9.10
2019,04,05,15,45,4.90
2019,04,05,15,46,12.20
2019,04,05,15,47,7.80
2019,04,05,15,48,7.50
2019,04,05,15,49,8.90
2019,04,05,15,50,13.90
2019,04,05,15,51,19.90
2019,04,05,15,52,15.60
2019,04,05,15,53,15.00
2019,04,05,15,54,18.00
2019,04,05,15,55,13.90
2019,04,05,15,56,12.30
2019,04,05,15,57,11.30
2019,04,05,15,58,12.70
2019,04,05,15,59,7.90
2019,04,05,16,00,5.90
2019,04,05,16,01,7.70
2019,04,05,16,02,11.70
2019,04,05,16,03,8.00
2019,04,05,16,04,12.30
2019,04,05,16,05,11.50
2019,04,05,16,06,10.10
2019,04,05,16,07,13.30
2019,04,05,16,08,12.60
2019,04,05,16,09,11.60
2019,04,05,16,10,14.40
2019,04,05,16,11,11.60
2019,04,05,16,12,10.40
2019,04,05,16,13,13.10
2019,04,05,16,14,13.70
2019,04,05,16,15,9.10
2019,04,05,16,16,11.90
2019,04,05,16,17,7.30
2019,04,05,16,18,5.20
2019,04,05,16,19,4.20
2019,04,05,16,20,5.90
2019,04,05,16,21,7.40
2019,04,05,16,22,7.70
2019,04,05,16,23,3.30
2019,04,05,16,24,6.60
2019,04,05,16,25,12.50
2019,04,05,16,26,8.50
2019,04,05,16,27,9.10
2019,04,05,16,28,8.50
2019,04,05,16,29,9.20
2019,04,05,16,30,7.10
2019,04,05,16,31,3.40
2019,04,05,16,32,3.10
2019,04,05,16,33,5.40
2019,04,05,16,34,6.90
2019,04,05,16,35,5.10
2019,04,05,16,36,7.00
2019,04,05,16,37,6.80
2019,04,05,16,38,4.00
2019,04,05,16,39,6.50
2019,04,05,16,40,4.30
2019,04,05,16,41,7.60
2019,04,05,16,42,6.80
2019,04,05,16,43,6.40
2019,04,05,16,44,12.10
2019,04,05,16,45,8.50
2019,04,05,16,46,7.90
2019,04,05,16,47,4.90
2019,04,05,16,48,2.20
2019,04,05,16,49,3.40
2019,04,05,16,50,3.90
2019,04,05,16,51,3.70
2019,04,05,16,52,2.70
2019,04,05,16,53,2.90
2019,04,05,16,54,3.20
2019,04,05,16,55,2.10
2019,04,05,16,56,3.70
2019,04,05,16,57,3.20
2019,04,05,16,58,0.20
2019,04,05,16,59,1.00
2019,04,05,17,00,0.90
2019,04,05,17,01,2.90
2019,04,05,17,02,4.80
2019,04,05,17,03,5.10
2019,04,05,17,04,1.00
2019,04,05,17,05,0.00
2019,04,05,17,06,2.00
2019,04,05,17,07,1.90
2019,04,05,17,08,2.70
2019,04,05,17,09,2.90
2019,04,05,17,10,0.40
2019,04,05,17,11,2.40
2019,04,05,17,12,3.40
2019,04,05,17,13,2.60
2019,04,05,17,14,0.80
2019,04,05,17,15,4.40
2019,04,05,17,16,4.50
2019,04,05,17,17,4.70
2019,04,05,17,18,2.30
2019,04,05,17,19,1.20
2019,04,05,17,20,0.80
2019,04,05,17,21,1.70
2019,04,05,17,22,2.20
2019,04,05,17,23,2.50
2019,04,05,17,24,5.10
2019,04,05,17,25,5.70
2019,04,05,17,26,4.30
2019,04,05,17,27,4.60
2019,04,05,17,28,4.10
2019,04,05,17,29,2.90
2019,04,05,17,30,2.40
2019,04,05,17,31,4.30
2019,04,05,17,32,6.70
2019,04,05,17,33,6.30
2019,04,05,17,34,6.60
2019,04,05,17,35,5.30
2019,04,05,17,36,5.60
2019,04,05,17,37,5.60
2019,04,05,17,38,6.30
2019,04,05,17,39,6.50
2019,04,05,17,40,6.20